Location: Bagnara
(41.0500°N, 14.7833°E)
Time: 15:31:23
(UTC+00:00)

Cosmos 540 Rocket - Pass Details

Date: 20 June 2021
Orbit: 739 x 754 km, 74.1° (Epoch: 05 August)

Event Time Altitude Azimuth Distance (km) Brightness Sun altitude
Exits shadow 00:15:12 65° 200° (SSW) 814 3.3 -23.3°
Maximum altitude 00:15:59 89° 282° (WNW) 745 3.3 -23.3°
Drops below altitude 10° 00:21:07 10° 19° (NNE) 2,258 7.1 -23.0°
Sets 00:23:29 0° 20° (NNE) 3,186 8.2 -22.8°
